Погода Казанская

Погода Казанская : погода сейчас, прогноз погоды и архив. Всё, что Вы хотите узнать о погоде Казанская!

Хотите узнать прогноз погоды Казанская? Тогда Вам сюда: Погода Казанская

Поиск расширенной информации на нашем сайте:

Другие новости

Новости СМИ2

Главная страница сайта

Новости сайта

03.07.2017

Напоминаем, что на нашем специализированном сайте Метеоцентр.Азия вы можете получить высокодетализированные автоматические прогнозы погоды по пунктам России, СНГ и мира в авиационном формате (включающие направление и скорость ветра, видимость, явления погоды, количество и форму облачности, нижнюю и верхнюю границу облачности).


Погода Казанская - сегодня

Время (UTC), дата Ветер
(°,м/с) 
Видим.   Явления Облачность Т
(°С)
Тd
(°С)
f(%) Тe
(°С)
Pmin
(гПа)
dP
(гПа)
Po
(мм)
O2
(г/м3)
Тmin Tmax R s Состояние
почвы
12 09.12.17 140 (ЮВ) 20000 м    9/8 1000 м средняя 
[Sc|Ac trans]
+0.8 -1.9 82 1019.8  -0.6  758  305           
15 09.12.17 130 (ЮВ) 20000 м    9/9 1000 м 
[Sc]
+0.5 -1.6 86 -1  1019.1  -0.7  758  305    +0.8       
18 09.12.17 140 (ЮВ) 20000 м    10/10 600 м 
[Sc]
+0.8 -0.9 88 -2  1018.5  -0.7  757  304           
21 09.12.17 120 (ЮВ) 10 км    10/10 600 м 
[Sc]
+0.5 -0 96 1018.6  0.1  757  305           
00 10.12.17 120 (ЮВ) 4000 м  дымка  10/10 300 м 
[St]
+0.8 +0.6 99 1018.1  -0.4  757  304           
03 10.12.17 090 (В) 4000 м  дымка  10/10 300 м 
[St]
+2 +1.7 98 +1  1017.2  -0.9  756  302  +0.5         
06 10.12.17 080 (В) 4000 м  дымка  10/10 600 м 
[Sc]
+3.4 +2.8 96 +3  1017  0.1  756  300           
09 10.12.17 180 (Ю) 10 км    9/9 1000 м 
[Sc]
+6.2 +3.5 83 +5  1016.1  -0.7  756  297           
12 10.12.17 120 (ЮВ) 2{10}  20000 м    6/6 1000 м 
[Sc]
+8.6 +2.6 66 +9  1015.2  -0.9  755  294           
15 10.12.17 130 (ЮВ) 20000 м    4/0 средняя 
[Ac trans]
+5.5 +2 78 +4  1014.8  -0.5  755  298    +9.2       
18 10.12.17 130 (ЮВ) 20000 м    4/0 средняя 
[Ac trans]
+4.3 +0.8 78 +3  1014  -0.9  754  299           
21 10.12.17 140 (ЮВ) 5-10{12}  20000 м    10/0 средняя 
[Ac As]
+3.7 +1.8 87 +1  1013  -1  753  299           
00 11.12.17 140 (ЮВ) 6-11{12}  20000 м    10/0 средняя 
[Ac As]
+3.9 +2.2 89 +1  1012  -0.9  752  299           
03 11.12.17 170 (Ю) 20000 м  в посл. час дождь  10/10 300 м 
[Frnb]
+4.1 +2.9 92 +2  1012.6  0.5  753  298  +3.6       
06 11.12.17 200 (Ю) 4{19}  20000 м  {ливн. осадки}  10/10 600 м 
[Sc]
+2.4 -1.7 74 1016.3  3.7  756  302  +2.4         
09 11.12.17 230 (ЮЗ) 4{13}  20000 м    10/10 600 м 
[Sc]
+2.9 -1.5 73 +1  1018.4  757  302           
12 11.12.17 210 (ЮЗ) 3{12}  20000 м    8/0 средняя 
[Ac As]
+3.3 -2 68 +2  1019.9  1.5  758  302           
15 11.12.17 150 (ЮВ) 20000 м    10/10 600 м 
[Sc]
+2 -2.2 74 +1  1021.7  1.7  760  304    +4.5       
18 11.12.17 190 (Ю) 20000 м    10/10 600 м 
[Sc]
+2.4 -0.5 81 1021.7  760  303           
21 11.12.17 200 (Ю) 20000 м    10/10 600 м 
[Sc]
+3.2 +0.8 84 +2  1021.6  -0.1  760  302           
00 12.12.17 160 (Ю) 4000 м  слаб. дождь  10/10 300 м 
[Ns]
+3.1 +2.2 94 +2  1020.3  -1.3  759  302           
03 12.12.17 190 (Ю) 20000 м  {дождь}  10/10 600 м 
[Sc]
+4.3 +2.7 89 +3  1019.8  -0.5  758  300  +1.9    0.8     
06 12.12.17 190 (Ю) 20000 м  {дождь}  10/10 600 м 
[Sc]
+5 +3.8 92 +4  1020.1  0.3  758  300           
09 12.12.17 210 (ЮЗ) 20000 м    10/10 600 м 
[Sc]
+6.3 +5 91 +5  1019.7  0.3  758  298           
12 12.12.17 180 (Ю) 10 км  слаб. дождь  10/10 300 м 
[Frnb|Ns]
+6.7 +5.8 94 +6  1018.7  -1  757  297           
Время (UTC), дата Ветер
(°,м/с) 
Видим.   Явления Облачность Т
(°С)
Тd
(°С)
f(%) Тe
(°С)
Pmin
(гПа)
dP
(гПа)
Po
(мм)
O2
(г/м3)
Тmin Tmax R s Состояние
почвы

Для получения пояснительной информации подведите курсор к названию столбца.

ПОГОДА Казанская - архив

Всё, что Вы хотите узнать о погоде Казанская - удобно и подробно!

Выберите нужную дату (начиная с 1 января 2015* года) и нажмите кнопку "Найти".
Будут отображены архивные сводки погоды по пункту Казанская, начиная с указанной даты.


Отображать данные в формате CSV (для использования в таблицах Excel)


Внимание! Наш архив погоды предназначен исключительно для личного некоммерческого использования в познавательных целях. Если Вам необходимы официальные справки о состоянии погоды (для производственных, юридических, коммерческих и т.п. целей), обращайтесь в органы Росгидромета.

*Примечание: данная дата относится к архиву по метеостанциям СССР (Россия, СНГ, Балтия).
Архив по метеостанциям Зарубежной Европы и Азии (кроме Китая) хранится 10 дней, по другим регионам земного шара (Китай, Африка, Америка, Австралия, Океания) - 1 день.

Казанская - район местоположения метеостанции


Название, широта, долгота, высота метеостанции:
Казанская 49.8°ш. 41.2°д. 72 м над ур. моря [Российская Федерация]

Дополнительная информация

В oтличие oт бoльшинства пoгoдных сайтoв мы публикуем пoдрoбную метеoинфoрмацию в детальнoм прoфессиoнальнoм фoрмате.

Характеристики температуры и влажнoсти вoздуха измеряются на высoте 2 м в тени вдали oт зданий и деревьев.
Скoрoсть ветра измеряется на высoте 10 м (на урoвне рoста челoвека скoрoсть ветра ниже в 1.5-2 раза). Если метеoстанция нахoдится в гoрoде или в лесу, тo скoрoсть ветра занижена на 2-4 м/с пo сравнению с oткрытым местoм. Скoрoсть ветра над акватoриями крупных рек и oзёр, а также на вершинах хoлмoв на 2-5 м/с выше, чем в oбычных услoвиях.
Атмoсфернoе давление в разных тoчках местнoсти мoжет значительнo oтличаться oт давления на метеoстанции, в зависимoсти oт услoвий рельефа (при пoдъёме на 10 м давление пoнижается примернo на 1 мм рт.ст.).